Theta_e
309 309 309 308 307 307 307 307 307 307 307 307 308 308 310 312 313 302 298 305 304 299 298 299 299 295 297 297 292 292 293 295 292 292 293 294 291 294 293 297 294 291 290 291 291 288 285 308 306 304 308 313 316 316
309 309 308 307 306 306 307 307 307 307 307 307 307 307 309 311 313 308 296 301 308 302 297 300 303 303 301 299 294 296 295 297 299 296 296 295 290 291 293 291 301 293 296 292 295 295 305 308 306 312 315 315 316 315
309 309 308 307 306 306 306 307 306 307 307 307 307 307 308 310 312 310 302 298 299 299 297 296 296 301 304 304 305 295 295 300 299 304 299 297 292 299 292 294 295 300 304 298 298 303 306 309 312 317 319 316 318 318
308 308 308 306 306 306 306 306 306 306 306 307 307 307 308 309 311 312 305 304 305 300 294 292 302 299 304 303 303 303 301 305 305 305 299 298 295 300 294 296 296 299 303 301 299 303 307 311 314 316 319 321 319 320
307 308 307 306 306 306 306 307 306 306 306 307 307 307 307 307 310 311 305 308 308 301 293 294 301 301 301 302 301 302 302 300 297 298 299 296 301 300 298 300 297 302 301 298 297 307 307 308 313 315 317 320 320 319
305 307 307 306 306 306 306 306 306 306 306 306 307 307 307 307 309 305 293 306 308 308 297 292 297 297 299 302 300 300 300 300 300 299 299 301 304 300 296 296 301 304 307 307 304 310 310 312 315 319 320 321 321 320
304 305 307 306 306 306 306 306 306 306 306 307 307 307 307 307 307 301 293 306 309 309 298 294 291 298 300 302 303 303 302 302 301 301 300 301 300 303 299 293 300 305 307 308 309 309 308 310 317 322 321 321 319 319
302 303 305 306 306 306 305 305 306 306 306 306 306 307 307 307 308 303 302 308 309 303 301 294 291 293 301 299 298 305 303 302 303 303 304 301 302 302 297 301 304 306 308 308 308 311 310 313 321 319 320 318 316 315
300 303 304 305 306 306 305 305 306 306 306 307 307 306 306 306 302 299 310 311 308 299 293 294 292 286 297 294 295 296 301 298 306 302 302 304 301 298 300 301 303 306 307 308 313 316 315 317 319 317 317 316 314 313
299 301 303 305 306 305 305 305 306 306 306 306 299 300 294 301 311 309 301 302 300 300 299 293 293 289 294 294 291 291 295 297 297 300 302 300 299 305 305 306 306 307 309 310 309 309 314 316 318 316 317 316 315 314
298 300 302 304 306 305 305 306 306 305 302 297 297 296 299 307 301 298 296 296 297 294 296 296 294 293 300 292 293 297 295 295 293 298 300 299 298 300 306 307 310 310 309 310 313 314 317 317 319 317 317 316 316 315
298 299 302 303 305 306 305 306 305 296 292 296 296 300 302 300 295 292 293 295 294 289 293 293 298 297 295 297 297 300 296 299 291 301 300 296 300 306 306 309 312 314 312 312 315 316 318 319 319 319 317 316 315 315
298 299 301 302 305 305 305 305 305 302 301 296 299 295 293 291 286 288 286 287 287 296 295 300 298 301 296 299 300 300 297 295 301 297 295 298 303 307 306 309 311 316 316 317 317 318 319 320 321 319 317 317 315 314
298 299 301 303 305 305 305 305 305 303 296 289 289 283 287 286 291 288 289 288 293 295 296 300 296 296 296 295 296 291 298 299 292 291 294 301 305 308 309 311 312 313 316 316 316 318 320 319 318 318 317 317 315 314
300 300 301 305 305 305 305 305 305 298 296 288 288 282 287 291 292 296 296 295 297 297 296 295 295 295 292 291 293 293 293 292 294 294 300 304 306 307 309 311 312 313 315 318 317 318 319 319 316 315 316 316 316 314
299 300 302 304 304 305 305 304 301 297 295 291 288 287 288 289 288 289 291 295 301 299 300 297 293 290 291 292 292 293 292 292 298 302 305 307 306 306 308 309 311 315 316 317 318 318 318 318 316 315 315 315 315 314
300 298 303 304 304 304 304 299 297 292 291 289 284 287 286 286 287 289 293 295 302 296 288 294 290 290 293 290 294 298 296 299 301 304 306 306 305 305 307 311 313 316 318 316 317 318 318 318 317 315 312 313 314 314
297 300 303 304 302 301 299 297 294 291 287 288 286 286 286 288 287 288 292 297 298 295 295 292 295 288 289 288 291 297 299 300 302 304 306 306 307 308 309 312 317 319 317 317 316 317 316 316 315 313 313 314 313 313
299 299 302 303 301 297 293 293 294 286 287 289 287 287 287 288 291 294 294 294 297 300 298 296 293 288 290 296 296 298 298 299 299 302 305 307 308 308 310 313 316 317 315 314 314 315 315 316 316 315 314 314 312 313
302 302 302 302 301 293 290 291 296 288 283 285 287 287 287 288 291 291 292 293 294 294 292 291 292 294 295 296 300 300 301 302 302 301 302 305 309 309 309 313 315 316 315 314 313 306 311 311 313 314 315 314 313 312
299 300 301 301 297 295 293 290 289 291 290 286 288 288 288 289 288 289 289 292 290 290 290 294 296 298 301 302 303 303 302 302 301 301 302 303 307 309 308 314 315 316 314 313 313 309 308 311 311 314 312 313 314 314
297 301 297 298 291 293 290 291 287 289 289 289 290 292 288 287 288 290 291 289 290 293 294 295 297 298 301 302 303 303 302 302 303 304 301 304 304 306 310 312 313 313 314 314 314 314 313 313 312 313 312 311 310 312
300 298 293 293 289 288 287 291 287 286 283 285 288 288 289 289 290 291 286 289 291 294 297 298 299 301 301 305 305 302 302 302 303 303 304 305 307 311 312 312 314 312 311 313 317 316 315 306 308 312 311 312 311 309
298 292 289 288 287 284 289 286 286 285 285 284 284 285 287 287 289 287 286 288 290 292 292 294 297 297 298 303 302 301 300 300 301 301 304 305 306 309 312 312 312 314 313 314 316 314 314 313 306 311 311 311 310 310
286 286 287 283 288 284 283 283 283 283 283 284 284 284 285 287 285 285 286 287 289 291 293 293 294 295 294 296 298 297 300 298 298 299 304 309 309 311 310 311 311 313 314 314 313 313 312 312 313 312 311 311 310 310
281 286 285 285 286 285 283 282 282 283 283 283 284 286 285 284 283 283 285 289 289 290 291 292 293 293 294 296 296 296 297 299 301 303 307 311 311 310 308 308 308 310 313 313 314 313 313 313 312 312 311 305 295 309
281 282 285 286 285 284 283 284 284 283 283 283 284 284 284 283 283 286 291 293 293 295 296 298 297 295 296 299 301 299 298 299 304 305 309 311 312 313 312 309 309 311 313 313 314 314 314 313 313 313 314 314 310 310
286 284 280 284 283 284 284 282 283 283 284 287 287 286 285 285 285 289 292 295 298 299 298 299 300 300 301 303 305 304 302 303 307 309 309 310 311 312 313 314 314 295 312 313 313 313 313 313 312 310 309 309 310 311
285 285 284 282 283 283 283 283 283 286 289 287 285 284 286 290 292 292 292 296 298 296 295 295 297 300 302 304 306 305 303 306 307 307 306 305 305 308 313 313 310 312 310 306 289 302 311 311 312 312 312 313 314 314
286 287 284 284 282 281 284 287 286 289 289 290 289 289 289 291 292 293 294 296 296 296 297 297 298 298 299 301 303 306 307 307 309 308 306 306 307 310 313 313 312 312 311 309 307 302 291 304 301 309 309 310 310 311
291 288 286 286 284 288 289 292 293 292 291 290 290 289 290 290 292 295 296 297 297 297 296 296 297 299 300 302 303 304 305 308 309 311 311 311 311 313 314 314 313 312 312 310 309 308 306 307 307 307 307 306 305 305
289 287 285 285 287 291 293 291 291 291 291 290 290 291 290 290 289 292 295 297 296 295 294 295 298 299 304 306 307 308 295 308 309 311 312 312 314 314 313 311 311 311 310 310 309 308 308 307 306 307 307 306 305 304
290 289 287 287 288 289 291 291 290 290 291 290 291 292 292 292 291 294 299 299 298 297 298 301 304 305 306 307 308 308 299 309 301 289 289 291 293 301 309 310 310 310 309 308 308 308 307 307 306 305 306 306 306 306
Wind_Speed
9 9 7 6 5 5 6 7 7 8 9 10 11 11 12 12 6 3 3 1 1 3 6 7 6 6 3 3 3 4 6 1 2 1 2 2 3 3 3 4 6 3 5 3 4 6 10 7 20 5 6 20 12 9
8 8 7 5 5 5 6 6 7 8 8 9 10 10 10 12 9 3 1 1 1 3 6 4 8 9 11 10 5 3 4 2 3 2 2 2 4 4 6 4 3 5 6 3 6 6 6 14 19 18 15 19 12 5
8 9 8 7 5 5 6 6 7 7 8 9 10 10 10 11 9 3 2 1 1 3 6 2 7 7 5 11 10 5 3 6 4 3 2 4 7 4 3 6 4 5 4 5 7 7 11 14 15 9 13 6 7 12
9 8 8 6 6 5 5 7 7 7 7 8 9 10 10 11 9 7 2 2 2 3 4 7 3 5 6 8 12 19 10 2 1 2 4 4 3 3 4 6 10 9 5 6 11 17 18 2 4 7 11 7 9 13
8 8 8 6 6 7 5 6 6 8 8 9 9 9 10 11 11 4 2 3 4 2 4 8 16 8 3 9 16 14 15 11 3 4 5 6 3 4 4 5 12 5 7 4 8 10 7 11 10 12 12 5 5 16
9 6 9 9 8 7 6 6 6 8 8 9 10 10 10 11 10 2 4 1 4 3 3 5 5 6 3 6 9 13 11 6 4 4 4 4 5 3 5 6 9 9 7 12 11 10 15 14 14 8 9 7 5 13
9 9 9 9 8 7 6 7 7 7 8 9 10 11 11 10 3 2 5 1 3 2 2 6 5 6 4 3 0 3 7 4 4 3 5 4 3 4 4 14 27 12 13 15 11 10 19 15 6 3 8 11 10 13
8 8 8 10 9 8 7 7 7 7 8 9 11 12 11 12 6 4 4 12 4 2 1 4 6 6 3 3 4 3 4 3 6 4 3 3 3 5 9 17 16 15 12 15 17 13 17 14 7 4 5 13 18 12
8 8 8 8 9 8 7 6 6 7 8 10 12 14 4 2 2 4 4 5 4 3 3 3 3 5 4 2 3 4 3 4 4 5 4 3 4 9 12 9 12 11 7 6 3 5 5 6 3 6 7 11 18 14
8 8 8 10 8 8 7 5 6 7 8 10 3 2 2 3 6 3 1 3 3 4 3 5 2 6 2 1 3 3 2 4 3 6 3 4 7 18 14 13 13 15 15 8 4 5 4 5 6 10 11 9 13 13
10 8 8 9 8 7 7 5 4 5 4 1 1 3 3 7 2 2 3 4 3 4 5 5 7 7 3 4 4 4 3 3 4 2 3 3 5 5 6 10 10 10 10 12 11 5 7 7 9 10 7 11 12 18
10 10 9 7 8 9 7 5 3 3 2 2 2 3 2 2 2 3 4 3 5 6 4 4 4 6 4 3 3 4 4 2 7 3 3 4 4 5 6 9 11 8 7 9 8 9 7 8 11 12 7 9 15 16
10 12 12 12 9 9 7 7 7 6 3 3 1 3 3 3 3 6 6 4 4 3 2 1 4 3 1 3 4 4 6 6 0 3 4 5 5 6 6 6 9 7 6 5 4 5 6 8 5 9 10 12 14 16
10 12 11 13 11 8 8 8 7 3 2 2 3 4 5 5 6 6 4 2 4 3 4 1 3 4 2 3 2 3 4 5 4 4 5 2 7 10 8 7 7 10 9 9 4 4 4 5 6 9 10 9 15 16
9 9 12 9 9 8 8 10 8 2 2 3 3 6 7 6 3 2 2 4 4 3 3 3 3 3 3 3 3 2 4 5 4 3 3 8 13 12 12 11 8 10 9 9 3 3 4 8 9 9 9 9 9 13
7 8 4 9 10 10 9 8 3 2 2 3 5 4 5 3 5 3 4 4 3 3 3 3 4 4 5 4 5 8 5 3 3 4 8 10 12 11 12 14 11 9 8 8 4 4 7 11 11 12 11 10 11 14
3 4 8 12 11 10 13 4 1 4 5 5 5 3 3 3 5 5 3 3 2 3 2 5 4 8 2 4 4 3 3 7 10 12 9 11 13 14 14 13 12 10 10 8 4 2 8 11 12 11 12 9 11 11
3 3 7 11 8 6 1 3 3 4 8 7 5 5 4 4 4 4 4 3 3 5 1 5 5 2 4 4 3 2 5 9 9 9 13 13 16 14 11 13 10 10 5 5 8 8 10 13 13 10 11 9 8 9
4 5 8 14 7 4 3 4 3 5 7 4 4 4 4 5 6 9 7 5 5 3 3 4 6 4 4 2 2 3 7 8 11 14 15 17 14 11 13 11 8 5 2 3 8 7 9 12 9 9 9 9 8 7
11 11 11 14 8 2 4 4 3 4 4 5 3 4 5 5 4 5 8 6 5 3 5 6 5 4 4 3 2 3 7 8 9 12 15 13 9 7 10 9 5 1 2 4 5 6 5 5 5 8 10 10 10 9
8 5 7 9 2 3 3 2 4 4 4 4 2 3 5 2 4 4 5 5 4 5 5 5 4 5 5 4 4 3 11 9 10 12 14 15 14 8 9 6 4 1 1 4 4 4 5 5 5 7 7 8 7 8
3 11 3 4 2 3 4 4 4 3 3 4 2 5 4 3 4 5 3 4 5 6 5 5 9 9 9 7 1 6 16 20 18 14 14 13 12 8 5 5 0 2 3 3 2 3 4 5 5 5 6 6 7 7
9 4 2 3 4 5 4 4 4 4 4 4 1 3 4 3 5 1 4 4 5 6 8 9 10 11 9 7 3 12 18 18 13 13 10 7 6 4 4 4 2 3 5 3 2 3 3 6 6 7 6 6 8 7
5 2 4 4 9 5 3 4 4 4 3 2 3 4 4 4 2 3 6 5 5 3 4 7 8 7 2 2 9 13 12 8 9 9 7 4 5 3 1 2 3 1 1 4 4 4 4 3 6 5 5 5 7 9
3 5 5 6 4 4 5 4 5 3 5 5 4 4 4 0 2 4 4 5 3 5 7 4 4 5 6 8 10 9 8 5 5 7 8 3 2 1 2 1 1 1 0 3 4 3 4 6 5 6 7 6 8 9
6 6 6 6 4 5 6 4 6 7 4 5 5 4 1 3 4 6 3 4 3 2 3 2 4 3 4 6 6 7 8 4 4 4 5 3 4 2 1 1 1 2 3 3 4 6 7 7 9 10 8 8 6 7
6 7 5 4 3 3 3 3 1 2 5 5 3 3 3 5 5 4 3 2 2 2 2 3 3 3 4 7 5 6 6 4 6 5 3 3 3 4 3 3 1 3 4 4 4 6 8 8 7 6 6 7 6 5
6 4 8 5 5 4 4 2 3 6 6 4 3 5 4 5 5 3 4 3 3 4 4 4 4 4 4 6 7 6 6 3 4 3 3 3 2 2 2 3 0 3 4 3 4 5 5 6 7 8 9 9 8 7
5 4 4 6 4 5 7 8 7 6 5 5 5 5 5 4 2 2 3 3 3 3 5 8 9 4 7 5 5 4 4 3 5 5 2 3 3 2 2 3 4 3 3 4 4 5 7 6 8 9 11 10 8 7
6 7 6 6 7 9 7 8 5 5 4 5 3 3 4 5 4 2 4 6 8 9 7 6 9 4 8 8 10 10 3 3 3 2 3 4 5 3 3 4 5 4 4 5 6 6 7 7 6 6 7 7 7 7
5 7 5 6 8 9 9 5 2 2 3 4 5 7 10 4 4 5 8 10 9 8 6 9 10 6 6 7 5 7 6 3 6 8 6 4 4 3 3 4 4 5 5 6 6 5 6 5 5 7 8 8 8 8
6 10 7 7 5 4 4 4 4 5 5 7 10 7 4 3 6 5 6 8 8 10 10 7 8 10 7 6 6 6 7 5 4 4 5 2 1 2 3 4 5 6 6 6 5 4 6 7 5 7 8 9 8 7
6 8 5 3 4 5 7 6 6 3 4 4 5 6 7 5 6 5 3 4 6 8 8 7 7 7 7 7 7 4 5 4 1 1 2 2 3 4 3 3 4 5 8 6 5 5 7 9 7 7 6 6 6 6
Wind_Direction
229 234 209 212 247 278 296 309 317 324 328 334 341 347 344 348 358 98 263 276 277 259 266 204 203 199 218 202 217 297 338 295 341 348 277 315 298 304 298 239 263 294 319 285 238 225 266 356 325 323 300 288 301 207
228 208 202 221 242 271 287 300 312 318 325 330 337 342 342 337 348 120 338 297 212 235 249 235 226 215 205 196 157 230 242 3 273 259 244 311 300 289 251 268 167 258 201 257 260 254 265 285 276 281 302 296 286 140
243 208 197 217 240 259 282 295 309 315 323 328 333 336 338 328 336 231 217 261 28 271 283 279 249 247 206 223 205 210 229 203 235 206 295 247 244 286 268 261 252 245 167 242 299 270 265 276 304 317 308 311 97 101
256 194 198 206 238 249 269 287 301 310 318 324 327 328 329 326 330 326 211 186 245 268 286 277 280 237 203 174 190 209 229 232 254 181 247 251 264 239 244 263 275 267 254 258 261 277 288 279 260 328 321 26 94 103
244 197 206 209 232 249 261 276 295 303 312 317 321 321 324 323 323 298 215 232 219 257 281 294 297 287 254 196 205 205 219 228 225 241 232 256 231 259 243 260 259 187 214 210 258 288 257 269 305 320 297 102 97 116
336 278 213 221 225 242 255 271 286 298 306 309 314 315 316 319 329 24 349 279 215 191 321 297 285 280 274 219 201 198 201 196 200 211 215 225 238 220 274 256 249 221 216 219 261 276 283 285 298 259 220 138 178 119
316 317 242 221 223 238 249 266 284 295 302 307 309 305 306 305 296 194 193 202 30 122 249 288 283 272 286 276 136 120 151 188 203 221 226 237 220 186 260 267 264 254 268 267 262 275 288 304 323 5 131 145 134 88
299 304 314 232 215 230 244 264 280 290 299 306 303 302 299 295 264 278 250 201 118 285 267 274 276 326 351 317 315 161 164 204 207 232 226 212 180 209 250 244 267 264 260 265 256 236 265 294 328 55 125 123 109 120
290 299 297 295 215 216 233 259 278 293 300 302 304 300 292 203 224 238 288 148 164 160 250 235 271 273 354 340 274 303 192 237 206 224 221 195 188 228 239 257 260 263 226 251 286 262 270 259 200 158 155 137 133 141
286 293 296 304 207 210 228 248 275 293 299 309 349 275 270 218 307 262 351 206 180 192 226 236 191 261 34 302 279 309 243 244 246 229 140 222 250 258 268 267 278 273 259 242 222 249 213 261 213 192 182 165 133 136
288 277 285 294 230 215 222 237 257 318 1 103 218 243 270 310 37 250 251 223 156 226 209 237 205 235 230 202 236 213 270 258 267 248 216 225 264 251 279 289 276 275 259 234 225 224 215 193 207 236 205 146 144 137
284 276 276 302 283 217 208 220 176 84 226 174 240 269 273 287 216 246 222 238 203 226 203 202 219 200 254 180 201 238 237 240 251 168 255 259 258 270 305 295 301 304 279 239 222 204 230 215 204 196 217 189 151 129
281 279 284 288 260 200 201 205 186 192 359 21 248 243 211 226 233 218 207 226 231 203 215 271 321 246 257 214 242 251 239 233 352 207 232 239 284 297 287 300 317 298 292 256 209 202 228 248 186 142 159 184 145 127
272 268 267 281 229 196 205 196 178 143 94 139 196 263 203 218 224 215 217 220 271 277 312 268 243 248 249 246 218 259 269 301 256 227 240 292 298 304 318 312 309 310 285 263 244 247 284 174 149 130 145 165 140 145
268 261 282 212 180 197 209 181 157 116 165 228 212 233 230 241 277 287 281 297 279 284 300 309 259 215 263 251 212 277 257 256 261 312 325 312 314 320 315 316 300 289 283 278 213 215 225 182 152 130 136 154 155 143
268 292 232 177 189 201 192 155 127 139 225 230 236 251 247 285 273 286 272 270 293 338 348 249 257 242 240 208 208 215 224 194 328 312 304 313 317 311 309 308 298 276 266 259 230 244 182 160 157 148 133 146 159 152
216 241 196 194 188 174 136 107 85 195 225 228 247 235 240 265 237 227 199 242 149 64 289 291 242 223 269 240 256 310 351 343 328 317 310 306 308 312 307 295 281 281 252 222 231 187 138 132 136 142 141 158 163 155
235 253 198 188 132 107 147 159 200 238 232 240 246 249 215 224 245 249 226 213 221 165 168 278 296 245 230 220 267 322 309 316 308 303 300 306 310 302 293 300 299 312 243 205 160 154 137 148 157 159 141 147 135 133
217 215 220 151 123 114 166 200 203 257 239 242 225 227 216 240 231 245 239 226 206 228 203 229 244 222 232 245 243 303 325 317 305 308 300 303 298 287 304 298 296 278 281 139 147 152 169 168 156 143 143 152 147 148
201 217 177 144 119 133 219 201 192 233 250 231 225 224 208 215 234 234 233 219 191 192 212 220 222 233 207 210 170 294 314 290 293 301 297 299 302 296 308 304 308 157 68 84 91 118 102 93 111 148 160 156 150 158
137 146 114 169 156 214 272 208 233 243 249 243 250 177 250 249 232 218 224 174 168 205 230 220 225 247 237 194 215 19 288 276 273 268 278 291 298 313 299 299 307 303 156 80 94 92 113 140 145 151 150 152 156 158
124 147 136 191 179 201 249 230 238 275 252 247 259 198 229 247 253 238 188 179 217 213 206 211 233 235 245 215 127 291 286 290 286 279 272 266 280 295 308 293 210 143 163 181 167 132 113 123 118 135 139 140 124 120
132 146 151 171 213 225 234 148 222 226 223 249 222 220 242 228 235 108 247 225 242 212 214 218 224 230 235 209 181 261 264 269 273 278 280 276 270 294 301 293 314 140 158 190 172 153 132 133 111 107 110 124 128 122
56 152 195 225 197 226 204 213 217 248 246 249 235 248 256 238 279 248 244 227 231 233 199 219 219 236 165 137 251 256 254 236 251 268 261 268 281 280 289 327 303 280 197 135 131 138 138 95 90 100 122 140 138 141
174 213 221 223 192 212 219 225 207 206 234 212 223 254 263 180 250 252 247 277 267 240 238 224 225 212 206 229 250 261 253 205 247 274 286 214 232 263 257 306 329 321 140 123 146 163 140 143 155 153 154 152 156 145
211 218 213 204 187 210 206 223 205 210 203 195 228 246 299 220 244 248 245 273 292 303 320 262 264 280 252 219 245 261 268 207 207 236 275 240 221 192 286 282 317 264 204 175 148 162 164 162 150 141 124 111 116 146
222 225 213 229 200 206 251 255 240 176 194 210 212 225 219 236 240 244 243 246 245 256 256 267 248 232 250 285 276 252 251 231 220 232 285 291 217 185 181 195 249 239 183 179 163 164 166 168 168 149 145 133 154 173
231 203 189 192 203 204 224 220 215 214 216 210 196 225 225 218 241 230 204 247 249 292 285 272 260 263 271 282 286 287 293 260 241 236 263 266 213 168 200 234 327 132 121 132 140 137 135 135 134 129 127 120 113 109
219 189 165 219 209 211 209 199 210 217 198 167 194 215 234 239 232 224 249 240 291 324 330 325 323 318 306 295 279 265 241 219 185 175 201 262 314 305 143 140 128 116 102 96 51 107 124 129 139 145 142 137 133 130
216 167 198 211 205 217 212 195 213 221 211 215 220 298 273 256 254 236 279 291 294 292 284 277 291 298 292 301 305 307 274 228 249 190 194 240 242 242 163 150 137 131 127 122 116 102 88 99 99 101 113 123 131 126
162 176 219 222 246 234 231 230 234 205 215 224 217 242 265 280 277 241 246 252 255 257 256 268 275 261 254 272 264 277 278 237 231 242 239 248 247 213 175 142 136 134 134 135 121 111 119 110 118 123 126 128 132 141
197 205 208 225 242 213 185 222 227 236 233 233 246 234 221 243 268 264 240 213 213 221 225 226 241 259 242 245 249 234 223 282 244 265 262 251 202 173 131 124 133 132 125 123 121 124 129 120 116 128 139 136 138 136
214 206 185 198 214 218 185 197 201 228 201 222 218 207 199 196 240 256 265 184 197 209 215 222 228 234 242 251 260 252 222 242 187 63 12 42 128 121 113 116 112 114 119 122 129 133 130 135 136 141 147 150 170 183